Home > Weather > Soest > Past weeks

Flag for Germany Past Weather in Soest, North Rhine-Westphalia, Germany — Yesterday and Last 2 Weeks

Now
64 °F

Scattered clouds.


Feels Like: 64 °F
Forecast: 61 / 72 °F
Wind: 9 mph from Southwest

Location: Dortmund / Wickede

Current Time: Jul 1, 2016 at 1:08:25 AM

Latest Report: Jun 30, 2016 at 9:50 PM


Visibility: N/A

Pressure: 29.92 "Hg

Humidity: 73%

Dew Point: 55 °F

Location of SoestLocation

Past Weather in Soest — Graph

°F

Soest Temperature Yesterday

Maximum temperature yesterday: 68 °F (at 3:20 PM)
Minimum temperature yesterday: 57 °F (at 5:50 AM)
Average temperature yesterday: 63 °F

High & Low Weather Summary for the Past Weeks

 TemperatureHumidityPressure
High90 °F (Jun 23, 3:20 PM)94% (Jun 17, 5:20 AM)30.24 "Hg (Jun 17, 5:20 AM)
Low48 °F (Jun 20, 5:20 AM)38% (Jun 23, 3:20 PM)29.56 "Hg (Jun 15, 9:20 PM)
Average63 °F71%29.99 "Hg
* Reported Jun 15 9:20 PM — Jun 30 9:50 PM, Soest, Weather by CustomWeather, © 2016

Note: Actual official high and low records may vary slightly from our data, if they occured in-between our weather recording intervals... More about our weather records

Advertising

Soest Weather History for the Previous 24 Hours

Scroll right to see more
 ConditionsComfort  
Time TempWeatherWind HumidityBarometerVisibility
9:50 PM
Thu, Jun 30
64 °FScattered clouds.9 mph73%29.92 "HgN/A
9:20 PM64 °FScattered clouds.8 mph73%29.92 "HgN/A
8:50 PM66 °FScattered clouds.7 mph68%29.89 "HgN/A
8:20 PM66 °FScattered clouds.9 mph64%29.89 "HgN/A
7:50 PM66 °FSunny.10 mph64%29.89 "Hg10 mi
7:20 PM68 °FScattered clouds.9 mph60%29.92 "HgN/A
6:50 PM66 °FSunny.10 mph64%29.92 "Hg10 mi
6:20 PM66 °FPassing clouds.10 mph64%29.92 "HgN/A
5:50 PM66 °FSunny.14 mph64%29.92 "Hg10 mi
5:20 PM66 °FPassing clouds.13 mph64%29.92 "HgN/A
4:50 PM66 °FPartly sunny.12 mph64%29.92 "HgN/A
4:20 PM66 °FPartly sunny.9 mph64%29.92 "HgN/A
3:50 PM66 °FPartly sunny.10 mph64%29.92 "HgN/A
3:20 PM68 °FPassing clouds.13 mph60%29.92 "HgN/A
2:50 PM64 °FPartly sunny.13 mph68%29.92 "HgN/A
2:20 PM66 °FPartly sunny.12 mph64%29.92 "HgN/A
1:50 PM66 °FBroken clouds.15 mph64%29.92 "HgN/A
1:20 PM66 °FPartly sunny.16 mph60%29.92 "HgN/A
12:50 PM64 °FPartly sunny.13 mph64%29.92 "HgN/A
12:20 PM66 °FPartly sunny.13 mph64%29.92 "HgN/A
11:50 AM64 °FPartly sunny.16 mph64%29.92 "HgN/A
11:20 AM64 °FPartly sunny.13 mph68%29.89 "HgN/A
10:50 AM63 °FBroken clouds.14 mph68%29.92 "HgN/A
10:20 AM63 °FPartly sunny.13 mph68%29.89 "HgN/A
9:50 AM61 °FPartly sunny.13 mph77%29.89 "HgN/A
9:20 AM61 °FPartly sunny.13 mph77%29.89 "HgN/A
8:50 AM59 °FBroken clouds.9 mph82%29.89 "HgN/A
8:20 AM57 °FPartly sunny.10 mph82%29.89 "HgN/A
7:50 AM57 °FBroken clouds.9 mph82%29.89 "HgN/A
7:20 AM57 °FLight rain. Broken clouds.9 mph82%29.89 "HgN/A
6:50 AM57 °FPartly sunny.7 mph82%29.89 "HgN/A
6:20 AM57 °FPartly sunny.8 mph82%29.89 "HgN/A
5:50 AM57 °FLight rain. Passing clouds.10 mph82%29.86 "HgN/A
5:20 AM59 °FPassing clouds.9 mph77%29.86 "HgN/A
Weather by CustomWeather, © 2016

See weather overviewHow to use our weather pages